Tracking 17264 objects as of 2-September-2015
HD Live streaming from Space Station

Track Soyuz TMA-18M
and Space Station

COSMOS 1478

Track COSMOS 1478 now!
10-day predictions
COSMOS 1478 is classified as:


NORAD ID: 14176
Int'l Code: 1983-069F
Perigee: 1,469.2 km
Apogee: 1,489.1 km
Inclination: 74.0 °
Period: 115.4 minutes
Semi major axis: 7850 km
RCS: 0.7085 m2 (medium)
Launch date: July 6, 1983
Source: Commonwealth of Independent States (former USSR) (CIS)
Your satellite tracking list
Your tracking list is empty





NASA's NSSDC Master Catalog

Two Line Element Set (TLE):
1 14176U 83069F   15244.10693580 -.00000030  00000-0 -97064-4 0  9998
2 14176  74.0234 222.3480 0012701 309.5569 120.2504 12.48209695465432

Source of the keplerian elements: AFSPC

N2YO: 357